Wind_Speed
4 3 3 2 2 2 3 3 3 4 4 5 6 6 6 7 8 9 10 10 10 11 12 13 13 13 14 14 13 13 12 12 11 11 10 9 10 11 12 14 16 18 20 22
4 4 3 2 3 4 4 4 4 4 4 5 6 6 7 8 8 9 10 10 11 12 13 14 14 14 14 14 14 14 13 12 11 11 10 10 11 11 12 14 15 16 17 19
4 4 3 3 4 4 5 4 5 5 5 5 6 7 8 8 9 10 11 11 12 13 13 14 14 14 14 14 13 13 13 12 12 12 12 11 12 13 13 14 16 18 18 20
5 4 5 4 4 5 5 5 5 6 5 5 6 8 9 10 10 11 12 13 13 14 14 14 14 15 15 14 14 14 14 13 13 13 14 14 14 14 15 17 18 19 20 21
7 6 5 5 6 7 7 7 7 7 7 7 7 8 10 11 12 13 13 14 14 15 15 15 15 15 15 16 16 16 16 15 15 15 15 16 17 17 18 19 20 21 22 24
9 9 7 7 8 8 9 8 9 9 9 10 10 11 11 13 13 14 15 15 15 16 16 17 17 17 17 17 18 17 17 17 18 18 19 19 20 20 22 23 23 24 25 27
11 11 10 10 10 10 10 11 11 11 12 13 13 14 14 14 14 15 15 16 16 17 17 18 18 19 19 19 19 19 20 20 20 21 21 22 23 24 25 26 27 28 29 31
13 13 13 13 12 12 12 13 13 13 14 15 15 15 16 16 16 17 17 18 19 19 19 20 20 20 21 21 22 22 23 23 24 24 25 26 27 27 28 29 31 32 33 35
16 15 16 16 15 15 15 15 15 16 16 17 17 17 18 18 19 19 20 20 21 22 22 22 23 23 24 24 25 25 26 26 27 28 28 29 30 31 32 34 35 35 37 38
19 19 19 19 18 18 17 17 17 18 19 20 20 20 20 21 21 22 22 23 24 24 24 25 25 26 27 27 28 29 29 30 31 31 32 33 33 35 36 37 38 39 40 41
22 21 21 21 21 20 20 20 20 20 21 21 21 22 22 22 23 24 24 25 25 26 27 27 27 28 29 30 31 31 32 33 34 34 35 36 37 38 39 40 41 42 43 44
25 24 24 23 23 24 23 23 22 22 23 23 24 24 24 25 25 25 25 26 27 27 28 29 29 31 32 33 34 34 35 36 37 37 38 39 40 41 42 43 44 45 45 46
28 27 26 26 26 26 26 26 25 25 25 25 26 26 27 27 27 28 28 29 29 30 30 31 32 34 35 36 36 37 37 38 39 40 40 41 42 43 44 45 46 47 47 48
30 29 28 28 29 29 28 28 28 28 28 28 28 28 29 29 30 30 31 31 32 32 33 34 35 35 36 37 37 38 38 39 40 41 42 43 44 45 46 46 47 48 49 49
31 31 30 30 30 30 30 30 30 30 30 30 31 31 31 32 33 33 33 33 33 34 35 35 36 36 37 38 38 39 40 40 41 42 43 45 45 46 47 47 48 48 49 50
33 33 33 32 32 32 32 32 32 32 32 32 32 33 33 33 34 34 35 35 35 35 36 36 37 38 39 40 40 41 41 41 42 43 44 45 46 47 47 48 48 49 49 49
34 34 35 35 35 34 34 34 34 33 33 34 34 34 34 34 35 35 36 36 36 36 37 38 39 40 41 42 42 42 42 42 43 44 45 46 46 47 47 48 49 49 50 50
35 35 35 36 36 36 36 36 36 36 36 36 36 36 36 36 36 37 37 37 38 38 39 40 40 41 42 43 42 42 42 43 44 45 46 47 47 48 48 49 49 49 50 50
36 35 35 36 36 36 36 36 37 37 37 37 38 38 38 38 38 38 38 39 39 40 41 41 42 43 43 43 43 43 43 44 45 46 47 48 48 48 48 49 49 49 49 48
36 36 36 36 36 36 36 37 37 37 38 38 39 39 39 39 39 39 40 40 41 42 42 42 43 43 44 44 44 44 44 44 45 46 47 47 48 48 48 47 48 47 46 46
37 37 37 37 37 37 37 37 38 38 38 38 39 39 40 40 40 40 41 41 42 42 42 43 43 43 44 44 44 44 44 45 45 46 47 47 47 46 46 45 45 44 43 43
38 38 37 37 38 38 38 38 38 39 39 39 39 40 40 40 40 41 41 42 42 42 43 43 43 43 43 44 44 44 44 44 45 45 45 46 45 44 43 42 41 41 40 40
39 39 39 39 39 39 39 39 39 39 39 39 39 40 40 40 40 41 42 42 42 42 43 43 43 43 43 43 42 43 43 43 43 43 43 43 42 41 40 39 39 39 39 39
39 39 39 39 39 39 39 39 39 39 39 39 39 39 40 40 41 42 42 42 42 42 43 43 43 42 42 42 42 42 42 41 41 41 40 40 39 39 38 38 38 37 37 37
40 40 40 40 40 40 40 39 39 39 39 39 39 39 39 40 41 41 41 41 42 42 42 42 43 42 41 41 41 40 39 38 38 38 38 37 37 37 37 36 36 36 36 36
41 40 40 40 40 40 40 39 39 39 40 40 39 40 39 39 40 40 40 40 40 41 41 42 42 41 40 40 39 38 37 36 36 36 36 35 35 35 35 35 35 35 34 33
41 41 40 40 40 40 40 40 40 40 40 40 39 39 39 39 39 39 39 39 40 40 41 41 40 39 38 37 36 35 35 35 35 34 33 34 34 35 35 34 33 32 31 30
Wind_Direction
59 48 42 45 32 12 359 357 1 2 359 360 6 10 5 360 354 353 359 1 360 359 358 355 356 356 357 358 355 352 351 350 346 341 331 318 305 295 289 283 279 278 278 275
33 19 22 26 9 1 359 358 357 1 3 358 5 7 360 354 353 354 356 358 356 353 353 356 358 360 359 356 354 353 351 348 346 343 336 327 320 313 306 299 293 287 285 283
4 353 360 3 352 359 3 1 358 1 360 358 358 355 351 352 352 349 347 348 349 349 349 351 352 351 350 352 352 348 347 346 343 342 339 331 325 320 313 307 300 295 293 289
342 337 341 339 335 338 344 345 347 351 346 344 346 345 342 344 346 346 345 346 346 348 348 347 347 346 344 343 342 340 339 340 339 338 337 333 327 323 318 313 306 302 299 296
325 321 322 314 311 312 317 322 324 326 324 324 326 331 331 332 336 339 340 340 342 342 343 342 341 340 338 336 335 332 331 329 326 325 324 322 320 319 316 315 312 308 306 303
322 316 314 307 301 298 300 305 307 308 308 310 312 315 318 319 323 327 329 330 332 335 334 334 333 333 332 330 329 327 326 324 322 320 317 315 314 313 311 311 310 309 307 304
311 313 314 305 300 298 295 297 294 295 298 301 304 306 310 312 315 317 320 322 323 324 326 325 325 325 325 325 323 322 322 320 319 317 316 315 313 312 310 309 309 308 307 305
295 301 302 298 295 295 296 297 295 295 297 299 300 301 303 306 309 310 312 314 316 316 316 317 317 317 318 317 315 314 314 314 313 312 311 311 310 309 309 308 308 308 308 306
290 293 291 291 291 291 292 292 293 294 295 296 296 297 298 301 303 305 306 308 311 312 311 311 311 312 312 311 309 308 308 308 308 308 308 307 307 307 307 307 306 306 305 305
285 285 284 285 286 286 286 287 289 291 293 293 293 294 295 296 298 300 302 304 307 308 308 308 307 308 308 308 307 307 306 306 306 306 306 306 305 305 305 305 305 305 305 305
281 279 278 280 281 281 282 283 285 287 290 291 290 291 293 295 297 298 300 301 303 305 306 306 306 307 306 306 306 306 305 305 305 305 305 305 305 305 305 305 305 305 306 306
278 276 276 276 276 277 279 281 283 285 287 289 289 289 290 292 294 297 298 300 302 303 304 305 306 306 306 305 305 305 304 304 304 304 304 304 304 304 304 305 305 305 306 307
277 275 276 276 275 276 277 278 279 282 284 286 288 289 290 291 293 294 296 298 299 301 302 303 304 305 305 305 304 304 304 304 304 304 304 304 304 304 304 305 305 306 307 307
276 276 277 277 276 277 277 277 278 279 281 284 286 288 289 289 290 292 294 296 297 299 301 302 303 304 304 304 304 304 304 304 304 304 304 304 305 305 305 305 306 306 307 308
276 277 277 277 277 276 276 277 278 279 281 282 284 286 288 288 289 291 292 294 296 298 300 302 303 304 304 304 304 304 303 303 303 303 304 305 305 305 305 305 306 307 308 309
276 277 277 276 276 276 276 277 277 279 280 282 285 286 288 289 290 291 292 294 296 298 300 301 302 303 303 303 304 304 303 303 303 304 305 306 306 305 305 306 307 308 309 310
277 277 277 276 276 275 275 276 277 278 280 282 284 286 288 290 292 292 293 294 296 297 299 300 301 302 302 303 303 303 303 303 303 304 305 306 306 306 306 307 308 309 310 311
275 276 276 276 275 275 276 276 277 278 280 282 284 286 288 289 291 292 293 293 295 297 298 299 301 301 302 302 302 302 302 302 303 304 305 306 306 306 307 308 309 310 311 312
274 275 275 275 276 277 278 278 278 279 281 282 284 286 287 288 290 291 292 293 294 296 298 299 301 302 302 302 302 302 302 303 303 304 306 306 306 306 307 308 309 310 311 312
273 273 273 275 276 277 278 279 280 280 281 283 284 285 286 288 289 291 293 294 295 296 298 299 301 302 302 302 302 302 302 303 303 305 306 306 306 307 308 309 310 311 312 313
272 273 273 275 276 277 278 279 280 281 282 283 284 285 287 288 290 291 293 295 296 297 299 300 301 302 302 302 302 301 302 303 304 305 306 307 307 307 308 310 311 312 314 315
271 272 273 274 275 277 278 279 280 281 281 282 284 286 287 289 290 292 294 296 297 298 299 300 301 302 303 303 302 302 303 304 305 307 308 308 309 309 309 311 312 314 315 316
271 272 273 274 275 277 278 279 280 281 282 283 284 286 289 291 292 294 295 296 297 298 299 300 301 302 302 302 302 303 304 305 306 308 309 310 310 311 311 313 314 315 317 318
271 272 274 275 276 277 279 280 281 282 283 284 285 287 290 291 293 295 296 297 298 299 300 301 302 303 303 303 303 304 304 305 307 309 310 311 312 313 314 314 315 316 317 318
273 274 275 276 277 278 279 280 281 282 283 285 287 289 291 292 294 295 297 298 299 300 301 302 303 303 303 303 304 304 305 306 308 310 311 312 313 314 315 316 316 316 318 319
274 275 277 278 279 279 280 281 282 283 284 286 288 290 292 293 295 296 297 298 299 301 302 303 303 303 303 303 304 304 305 307 308 309 310 312 314 315 316 317 317 317 318 320
275 276 277 279 279 279 280 281 282 283 284 286 288 290 292 294 296 297 297 298 300 301 302 303 304 304 303 303 304 305 306 307 308 309 310 312 314 316 316 317 318 319 320 321
Height
5664 5664 5663 5663 5662 5661 5660 5660 5659 5659 5657 5656 5655 5654 5653 5651 5650 5648 5646 5644 5642 5640 5638 5635 5632 5629 5626 5624 5621 5618 5616 5614 5612 5610 5608 5607 5606 5606 5606 5605 5605 5605 5605 5605
5666 5665 5664 5663 5663 5661 5660 5660 5659 5658 5658 5656 5655 5654 5653 5651 5649 5648 5646 5644 5642 5639 5637 5634 5632 5629 5626 5623 5621 5618 5616 5613 5611 5609 5608 5606 5605 5604 5603 5602 5601 5600 5600 5599
5667 5665 5665 5664 5663 5662 5661 5660 5659 5658 5658 5656 5655 5654 5652 5651 5649 5647 5645 5643 5641 5638 5636 5633 5631 5628 5626 5623 5620 5618 5615 5613 5611 5609 5607 5605 5603 5602 5600 5599 5598 5596 5595 5594
5667 5667 5665 5667 5663 5662 5661 5660 5659 5658 5657 5656 5654 5653 5651 5650 5648 5646 5644 5642 5639 5637 5634 5632 5629 5627 5624 5622 5619 5617 5614 5612 5610 5608 5606 5604 5602 5600 5598 5596 5594 5592 5590 5588
5666 5665 5665 5665 5663 5661 5660 5660 5658 5657 5656 5655 5653 5652 5651 5649 5647 5645 5642 5640 5638 5635 5633 5630 5628 5625 5622 5620 5617 5615 5612 5610 5608 5605 5603 5601 5599 5596 5594 5592 5589 5586 5584 5582
5665 5663 5663 5664 5662 5659 5660 5659 5658 5656 5655 5653 5652 5651 5650 5647 5645 5642 5640 5638 5636 5633 5631 5628 5625 5623 5620 5618 5615 5612 5610 5607 5604 5602 5599 5597 5594 5592 5589 5587 5584 5581 5578 5575
5663 5661 5662 5661 5659 5658 5658 5658 5655 5653 5652 5651 5649 5648 5646 5644 5642 5640 5637 5635 5633 5631 5628 5625 5623 5620 5617 5615 5612 5609 5606 5603 5601 5598 5595 5592 5589 5586 5583 5580 5577 5574 5571 5567
5661 5660 5662 5658 5656 5656 5655 5653 5651 5650 5649 5648 5646 5644 5642 5641 5639 5637 5634 5632 5630 5627 5625 5622 5619 5617 5614 5611 5608 5605 5602 5599 5596 5593 5590 5587 5583 5580 5577 5573 5570 5566 5562 5558
5659 5660 5657 5654 5653 5652 5651 5649 5648 5646 5645 5644 5642 5640 5639 5637 5635 5633 5630 5628 5626 5623 5620 5618 5615 5612 5609 5606 5603 5599 5596 5593 5590 5587 5583 5580 5576 5573 5569 5565 5561 5557 5552 5548
5654 5654 5652 5650 5648 5647 5646 5645 5643 5642 5641 5639 5637 5636 5634 5632 5630 5628 5625 5623 5621 5618 5615 5612 5609 5606 5603 5600 5596 5593 5589 5586 5582 5579 5575 5572 5568 5564 5560 5556 5551 5547 5542 5537
5648 5648 5646 5645 5643 5642 5641 5640 5638 5637 5635 5633 5632 5630 5628 5626 5624 5622 5620 5617 5615 5612 5609 5606 5603 5600 5596 5593 5589 5586 5582 5578 5575 5571 5567 5563 5559 5554 5550 5545 5540 5536 5530 5525
5642 5641 5639 5639 5637 5636 5635 5634 5633 5631 5629 5627 5625 5624 5622 5620 5618 5616 5613 5611 5608 5605 5602 5599 5596 5592 5589 5585 5581 5578 5574 5570 5566 5562 5557 5553 5549 5544 5538 5534 5529 5523 5518 5512
5633 5632 5632 5631 5630 5629 5628 5627 5626 5624 5622 5621 5619 5617 5615 5613 5611 5609 5606 5603 5600 5597 5594 5591 5588 5584 5580 5576 5572 5568 5564 5560 5556 5552 5547 5542 5538 5533 5528 5522 5516 5511 5505 5499
5625 5624 5624 5623 5622 5621 5620 5619 5617 5616 5615 5613 5611 5609 5607 5605 5603 5600 5598 5595 5592 5589 5586 5582 5579 5575 5571 5566 5562 5558 5554 5550 5545 5541 5536 5531 5526 5521 5516 5511 5505 5498 5492 5486
5616 5615 5615 5614 5614 5612 5611 5610 5609 5608 5606 5605 5603 5601 5599 5597 5594 5591 5589 5586 5583 5580 5576 5573 5569 5565 5561 5556 5552 5548 5543 5539 5534 5529 5524 5519 5514 5509 5503 5498 5492 5486 5480 5473
5607 5606 5605 5605 5604 5603 5602 5601 5600 5599 5597 5596 5594 5592 5590 5587 5585 5582 5579 5576 5573 5570 5567 5563 5559 5555 5550 5546 5541 5537 5532 5527 5523 5518 5513 5507 5502 5496 5491 5485 5479 5473 5467 5460
5596 5595 5595 5595 5594 5593 5592 5591 5590 5589 5587 5586 5584 5582 5580 5578 5575 5572 5570 5567 5563 5560 5556 5552 5548 5544 5540 5535 5530 5525 5521 5516 5511 5506 5501 5495 5490 5484 5478 5472 5466 5460 5453 5447
5584 5584 5584 5583 5583 5582 5582 5581 5580 5578 5577 5575 5574 5572 5570 5567 5565 5562 5559 5556 5553 5550 5546 5542 5537 5533 5528 5523 5519 5514 5509 5504 5499 5494 5489 5483 5477 5472 5466 5459 5453 5447 5440 5433
5573 5573 5572 5572 5572 5571 5571 5570 5569 5568 5566 5564 5563 5561 5559 5557 5554 5551 5549 5546 5542 5539 5535 5530 5526 5521 5517 5512 5507 5502 5497 5492 5487 5482 5477 5471 5465 5459 5453 5447 5440 5434 5427 5421
5561 5561 5561 5561 5560 5560 5560 5559 5558 5556 5555 5553 5551 5550 5548 5545 5543 5540 5537 5534 5531 5527 5523 5519 5514 5509 5505 5500 5495 5490 5486 5481 5475 5470 5464 5458 5452 5446 5440 5434 5428 5421 5415 5409
5550 5550 5549 5549 5549 5549 5548 5547 5546 5545 5543 5542 5540 5538 5536 5534 5531 5529 5526 5522 5519 5515 5511 5507 5502 5497 5493 5488 5483 5478 5474 5469 5463 5458 5452 5446 5440 5434 5428 5422 5416 5410 5404 5398
5538 5538 5538 5537 5537 5537 5536 5535 5534 5533 5532 5530 5528 5527 5524 5522 5519 5517 5514 5511 5507 5503 5499 5495 5490 5485 5481 5476 5471 5466 5462 5457 5452 5446 5440 5434 5429 5423 5417 5411 5406 5400 5394 5388
5526 5526 5526 5526 5525 5525 5524 5523 5522 5521 5520 5518 5517 5515 5512 5510 5507 5505 5502 5498 5495 5491 5487 5483 5478 5474 5469 5464 5459 5455 5450 5445 5440 5435 5429 5423 5418 5412 5407 5402 5396 5391 5385 5379
5514 5514 5514 5513 5513 5513 5512 5511 5510 5509 5508 5506 5504 5503 5501 5498 5496 5493 5490 5486 5483 5479 5475 5471 5466 5462 5457 5453 5448 5443 5439 5434 5429 5424 5419 5413 5408 5403 5398 5393 5387 5382 5376 5370
5501 5501 5501 5501 5501 5500 5500 5499 5498 5497 5496 5494 5492 5491 5488 5486 5484 5481 5477 5474 5471 5467 5463 5459 5455 5451 5446 5442 5437 5433 5428 5424 5419 5414 5409 5404 5400 5394 5389 5384 5379 5373 5368 5362
5489 5489 5489 5489 5489 5488 5487 5487 5486 5485 5484 5482 5480 5478 5476 5474 5471 5468 5466 5462 5459 5456 5452 5448 5444 5440 5435 5431 5427 5423 5418 5414 5410 5405 5401 5396 5391 5386 5381 5376 5371 5365 5360 5355
5476 5476 5476 5476 5476 5475 5475 5475 5474 5473 5471 5470 5468 5466 5464 5462 5460 5457 5454 5451 5448 5444 5440 5436 5433 5429 5425 5421 5417 5413 5409 5405 5401 5397 5393 5388 5383 5379 5373 5368 5363 5358 5353 5348